Вернуться в каталог

CZ-6A DEB

АктивенSSO
NORAD 56657·DEBRIS·🇨🇳 China

Запущен Nov 11, 2022 с Taiyuan Satellite Launch Center

Loading…

Ближайшие Пролёты (ближайшие 24 часа)

TLE

УстаревающийSource: Space-Track

Эпоха: Sep 9, 2026, 15:25 UTC

1 56657U 22151AGH 26252.64260893  .00000146  00000-0  15583-3 0  9991
2 56657  98.9607 196.7604 0176359 272.2185  85.8786 13.82057460175327

Отслеживайте CZ-6A DEB в реальном времени с AllMySat

Download on the App Store